Terug naar catalogus

STARLINK-35262

ActiefCommunicatieVLEO
NORAD 65847·PAYLOAD·🇺🇸 United States

Gelanceerd Sep 29, 2025 vanaf Vandenberg Space Force Base

Loading…

Volgende Passages (komende 24 uur)

TLE

VersSource: CelesTrak SupGP

Epoch: Sep 14, 2026, 15:05 UTC

1 65847C 25221AA  26257.62895833  .00012218  00000+0  36108-3 0  2579
2 65847  53.1571 289.1163 0001187  81.2559 284.3814 15.34376025    18

Volg STARLINK-35262 in realtime met AllMySat

Download on the App Store